Time,TemperatureF,DewpointF,PressureIn,WindDirection,WindDirectionDegrees,WindSpeedMPH,WindSpeedGustMPH,Humidity,HourlyPrecipIn,Conditions,Clouds,dailyrainin,SoftwareType,DateUTC
2013-09-11 00:01:00,69.3,65.6,30.05,SW,225,0.5,3.5,88,0.00,CLR,,0.00,WeatherDisplay:10.37,2013-09-11 04:01:00,
2013-09-11 00:02:00,69.3,65.6,30.05,SW,225,3.3,4.6,88,0.00,CLR,,0.00,WeatherDisplay:10.37,2013-09-11 04:02:00,
2013-09-11 00:07:00,69.4,65.7,30.05,NW,315,1.8,2.3,88,0.00,CLR,,0.00,WeatherDisplay:10.37,2013-09-11 04:07:00,
2013-09-11 00:12:00,69.6,65.9,30.05,SW,225,0.5,2.3,88,0.00,CLR,,0.00,WeatherDisplay:10.37,2013-09-11 04:12:00,
2013-09-11 00:17:00,69.6,65.9,30.05,West,270,4.9,4.9,88,0.00,CLR,,0.00,WeatherDisplay:10.37,2013-09-11 04:17:00,
2013-09-11 00:22:00,69.6,65.9,30.05,NW,315,1.8,4.6,88,0.00,CLR,,0.00,WeatherDisplay:10.37,2013-09-11 04:22:00,
2013-09-11 00:27:00,69.6,65.9,30.05,WSW,248,3.6,3.6,88,0.00,CLR,,0.00,WeatherDisplay:10.37,2013-09-11 04:27:00,
2013-09-11 00:32:00,69.6,65.9,30.05,SW,225,3.6,4.6,88,0.00,CLR,,0.00,WeatherDisplay:10.37,2013-09-11 04:32:00,
2013-09-11 00:37:00,69.6,65.9,30.05,SW,225,3.6,3.6,88,0.00,CLR,,0.00,WeatherDisplay:10.37,2013-09-11 04:37:00,
2013-09-11 00:42:00,69.6,65.9,30.05,WSW,248,5.4,5.8,88,0.00,CLR,,0.00,WeatherDisplay:10.37,2013-09-11 04:42:00,
2013-09-11 00:47:00,69.4,65.7,30.05,South,180,1.4,2.3,88,0.00,CLR,,0.00,WeatherDisplay:10.37,2013-09-11 04:47:00,
2013-09-11 00:52:00,69.4,65.7,30.04,SSW,202,2.9,2.9,88,0.00,CLR,,0.00,WeatherDisplay:10.37,2013-09-11 04:52:00,
2013-09-11 00:57:00,69.4,65.7,30.04,SE,135,0.7,2.3,88,0.00,CLR,,0.00,WeatherDisplay:10.37,2013-09-11 04:57:00,
2013-09-11 01:02:00,69.4,65.7,30.04,West,270,7.8,8.1,88,0.00,CLR,,0.00,WeatherDisplay:10.37,2013-09-11 05:02:00,
2013-09-11 01:07:00,69.4,65.7,30.04,WSW,248,6.4,6.4,88,0.00,CLR,,0.00,WeatherDisplay:10.37,2013-09-11 05:07:00,
2013-09-11 01:12:00,69.4,65.7,30.04,West,270,2.9,2.9,88,0.00,CLR,,0.00,WeatherDisplay:10.37,2013-09-11 05:12:00,
2013-09-11 01:17:00,69.6,65.9,30.03,SW,225,0.9,2.3,88,0.00,CLR,,0.00,WeatherDisplay:10.37,2013-09-11 05:17:00,
2013-09-11 01:22:00,69.6,65.9,30.03,WSW,248,1.6,2.3,88,0.00,CLR,,0.00,WeatherDisplay:10.37,2013-09-11 05:22:00,
2013-09-11 01:27:00,69.6,65.9,30.04,SW,225,0.7,2.3,88,0.00,CLR,,0.00,WeatherDisplay:10.37,2013-09-11 05:27:00,
2013-09-11 01:32:00,69.6,65.9,30.04,SW,225,1.1,1.1,88,0.00,CLR,,0.00,WeatherDisplay:10.37,2013-09-11 05:32:00,
2013-09-11 01:37:00,69.6,66.2,30.03,SSW,202,0.9,3.5,89,0.00,CLR,,0.00,WeatherDisplay:10.37,2013-09-11 05:37:00,
2013-09-11 01:42:00,69.8,66.1,30.03,SW,225,1.1,2.3,88,0.00,CLR,,0.00,WeatherDisplay:10.37,2013-09-11 05:42:00,
2013-09-11 01:47:00,69.8,66.4,30.03,SSW,202,1.1,1.1,89,0.00,CLR,,0.00,WeatherDisplay:10.37,2013-09-11 05:47:00,
2013-09-11 01:52:00,69.8,66.4,30.03,SW,225,2.4,2.4,89,0.00,CLR,,0.00,WeatherDisplay:10.37,2013-09-11 05:52:00,
2013-09-11 01:57:00,69.8,66.4,30.03,South,180,2.4,2.4,89,0.00,CLR,,0.00,WeatherDisplay:10.37,2013-09-11 05:57:00,
2013-09-11 02:02:00,69.8,66.4,30.03,South,180,0.2,2.3,89,0.00,CLR,,0.00,WeatherDisplay:10.37,2013-09-11 06:02:00,
2013-09-11 02:07:00,69.8,66.1,30.03,South,180,0.5,0.5,88,0.00,CLR,,0.00,WeatherDisplay:10.37,2013-09-11 06:07:00,
2013-09-11 02:12:00,69.8,66.4,30.03,WSW,248,1.4,3.5,89,0.00,CLR,,0.00,WeatherDisplay:10.37,2013-09-11 06:12:00,
2013-09-11 02:17:00,70.0,66.3,30.03,SW,225,0.9,4.6,88,0.00,CLR,,0.00,WeatherDisplay:10.37,2013-09-11 06:17:00,
2013-09-11 02:22:00,70.0,66.6,30.03,SW,225,0.7,2.3,89,0.00,CLR,,0.00,WeatherDisplay:10.37,2013-09-11 06:22:00,
2013-09-11 02:27:00,70.0,66.6,30.03,WSW,248,2.4,2.4,89,0.00,CLR,,0.00,WeatherDisplay:10.37,2013-09-11 06:27:00,
2013-09-11 02:32:00,70.0,66.6,30.03,South,180,0.5,2.3,89,0.00,CLR,,0.00,WeatherDisplay:10.37,2013-09-11 06:32:00,
2013-09-11 02:37:00,70.0,66.6,30.03,WSW,248,2.4,2.4,89,0.00,CLR,,0.00,WeatherDisplay:10.37,2013-09-11 06:37:00,
2013-09-11 02:42:00,70.0,66.6,30.03,WSW,248,2.0,5.8,89,0.00,CLR,,0.00,WeatherDisplay:10.37,2013-09-11 06:42:00,
2013-09-11 02:47:00,70.0,66.6,30.03,SW,225,4.7,4.7,89,0.00,CLR,,0.00,WeatherDisplay:10.37,2013-09-11 06:47:00,
2013-09-11 02:52:00,70.2,66.8,30.03,WSW,248,1.4,6.9,89,0.00,CLR,,0.00,WeatherDisplay:10.37,2013-09-11 06:52:00,
2013-09-11 02:57:00,70.2,66.8,30.02,SSW,202,0.7,2.3,89,0.00,CLR,,0.00,WeatherDisplay:10.37,2013-09-11 06:57:00,
2013-09-11 03:02:00,70.2,66.8,30.02,SSW,202,1.8,3.5,89,0.00,CLR,,0.00,WeatherDisplay:10.37,2013-09-11 07:02:00,
2013-09-11 03:07:00,70.2,66.8,30.02,SSW,202,1.6,2.3,89,0.00,CLR,,0.00,WeatherDisplay:10.37,2013-09-11 07:07:00,
2013-09-11 03:12:00,70.2,66.8,30.02,South,180,4.0,4.6,89,0.00,CLR,,0.00,WeatherDisplay:10.37,2013-09-11 07:12:00,
2013-09-11 03:17:00,70.2,66.8,30.02,SW,225,0.5,2.3,89,0.00,CLR,,0.00,WeatherDisplay:10.37,2013-09-11 07:17:00,
2013-09-11 03:22:00,70.2,66.8,30.02,South,180,0.5,1.1,89,0.00,CLR,,0.00,WeatherDisplay:10.37,2013-09-11 07:22:00,
2013-09-11 03:27:00,70.0,66.6,30.02,SW,225,1.8,1.8,89,0.00,CLR,,0.00,WeatherDisplay:10.37,2013-09-11 07:27:00,
2013-09-11 03:32:00,70.0,66.6,30.02,South,180,0.9,2.3,89,0.00,CLR,,0.00,WeatherDisplay:10.37,2013-09-11 07:32:00,
2013-09-11 03:37:00,69.8,66.4,30.02,SSW,202,0.9,1.1,89,0.00,CLR,,0.00,WeatherDisplay:10.37,2013-09-11 07:37:00,
2013-09-11 03:42:00,69.8,66.1,30.02,South,180,0.5,0.0,88,0.00,CLR,,0.00,WeatherDisplay:10.37,2013-09-11 07:42:00,
2013-09-11 03:47:00,69.8,66.4,30.02,SSW,202,0.2,3.5,89,0.00,CLR,,0.00,WeatherDisplay:10.37,2013-09-11 07:47:00,
2013-09-11 03:52:00,69.6,66.2,30.02,SW,225,1.8,3.5,89,0.00,CLR,,0.00,WeatherDisplay:10.37,2013-09-11 07:52:00,
2013-09-11 03:57:00,69.4,66.1,30.01,WSW,248,0.7,2.3,89,0.00,CLR,,0.00,WeatherDisplay:10.37,2013-09-11 07:57:00,
2013-09-11 04:02:00,69.4,66.1,30.02,WSW,248,2.9,2.9,89,0.00,CLR,,0.00,WeatherDisplay:10.37,2013-09-11 08:02:00,
2013-09-11 04:07:00,69.4,66.1,30.02,SW,225,1.8,2.3,89,0.00,CLR,,0.00,WeatherDisplay:10.37,2013-09-11 08:07:00,
2013-09-11 04:12:00,69.4,66.1,30.02,SW,225,0.7,1.1,89,0.00,CLR,,0.00,WeatherDisplay:10.37,2013-09-11 08:12:00,
2013-09-11 04:17:00,69.4,66.1,30.02,SW,225,0.2,1.1,89,0.00,CLR,,0.00,WeatherDisplay:10.37,2013-09-11 08:17:00,
2013-09-11 04:22:00,69.3,66.2,30.02,SW,225,2.2,2.4,90,0.00,CLR,,0.00,WeatherDisplay:10.37,2013-09-11 08:22:00,
2013-09-11 04:27:00,69.4,66.4,30.02,SW,225,0.2,1.1,90,0.00,CLR,,0.00,WeatherDisplay:10.37,2013-09-11 08:27:00,
2013-09-11 04:32:00,69.3,66.2,30.02,NW,315,1.1,3.5,90,0.00,CLR,,0.00,WeatherDisplay:10.37,2013-09-11 08:32:00,
2013-09-11 04:37:00,69.3,65.9,30.01,SW,225,0.9,1.1,89,0.00,CLR,,0.00,WeatherDisplay:10.37,2013-09-11 08:37:00,
2013-09-11 04:42:00,69.1,65.7,30.01,SW,225,2.2,2.3,89,0.00,CLR,,0.00,WeatherDisplay:10.37,2013-09-11 08:42:00,
2013-09-11 04:47:00,69.1,65.7,30.01,SSW,202,0.9,1.1,89,0.00,CLR,,0.00,WeatherDisplay:10.37,2013-09-11 08:47:00,
2013-09-11 04:52:00,68.9,65.5,30.01,SW,225,0.9,1.1,89,0.00,CLR,,0.00,WeatherDisplay:10.37,2013-09-11 08:52:00,
2013-09-11 04:57:00,68.9,65.5,30.01,SW,225,0.7,1.1,89,0.00,CLR,,0.00,WeatherDisplay:10.37,2013-09-11 08:57:00,
2013-09-11 05:02:00,68.7,65.3,30.02,SW,225,0.0,0.0,89,0.00,CLR,,0.00,WeatherDisplay:10.37,2013-09-11 09:02:00,
2013-09-11 05:07:00,68.7,65.3,30.02,SSW,202,0.9,1.1,89,0.00,CLR,,0.00,WeatherDisplay:10.37,2013-09-11 09:07:00,
2013-09-11 05:12:00,68.5,65.2,30.02,SW,225,0.5,1.1,89,0.00,CLR,,0.00,WeatherDisplay:10.37,2013-09-11 09:12:00,
2013-09-11 05:17:00,68.4,65.0,30.02,SW,225,0.7,1.1,89,0.00,CLR,,0.00,WeatherDisplay:10.37,2013-09-11 09:17:00,
2013-09-11 05:22:00,68.4,65.0,30.02,SW,225,0.9,1.1,89,0.00,CLR,,0.00,WeatherDisplay:10.37,2013-09-11 09:22:00,
2013-09-11 05:27:00,68.2,64.8,30.02,SSW,202,1.8,2.3,89,0.00,CLR,,0.00,WeatherDisplay:10.37,2013-09-11 09:27:00,
2013-09-11 05:32:00,68.2,64.8,30.02,SW,225,0.7,1.1,89,0.00,CLR,,0.00,WeatherDisplay:10.37,2013-09-11 09:32:00,
2013-09-11 05:37:00,68.0,65.0,30.02,SSW,202,2.0,2.3,90,0.00,CLR,,0.00,WeatherDisplay:10.37,2013-09-11 09:37:00,
2013-09-11 05:42:00,68.0,65.0,30.02,SW,225,0.7,3.5,90,0.00,CLR,,0.00,WeatherDisplay:10.37,2013-09-11 09:42:00,
2013-09-11 05:47:00,68.0,65.0,30.02,WSW,248,1.8,2.3,90,0.00,CLR,,0.00,WeatherDisplay:10.37,2013-09-11 09:47:00,
2013-09-11 05:52:00,68.0,65.0,30.02,SSW,202,1.4,2.3,90,0.00,CLR,,0.00,WeatherDisplay:10.37,2013-09-11 09:52:00,
2013-09-11 05:57:00,68.0,65.0,30.02,SW,225,0.7,2.3,90,0.00,CLR,,0.00,WeatherDisplay:10.37,2013-09-11 09:57:00,
2013-09-11 06:02:00,67.8,64.8,30.02,SW,225,2.4,2.4,90,0.00,CLR,,0.00,WeatherDisplay:10.37,2013-09-11 10:02:00,
2013-09-11 06:07:00,67.8,64.8,30.02,SW,225,1.1,2.3,90,0.00,CLR,,0.00,WeatherDisplay:10.37,2013-09-11 10:07:00,
2013-09-11 06:12:00,67.8,64.8,30.02,SW,225,1.1,3.5,90,0.00,CLR,,0.00,WeatherDisplay:10.37,2013-09-11 10:12:00,
2013-09-11 06:17:00,67.8,64.8,30.02,SSW,202,2.4,2.4,90,0.00,CLR,,0.00,WeatherDisplay:10.37,2013-09-11 10:17:00,
2013-09-11 06:22:00,67.8,65.1,30.02,WNW,292,0.5,3.1,91,0.00,CLR,,0.00,WeatherDisplay:10.37,2013-09-11 10:22:00,
2013-09-11 06:27:00,68.0,65.3,30.02,SW,225,0.5,1.1,91,0.00,CLR,,0.00,WeatherDisplay:10.37,2013-09-11 10:27:00,
2013-09-11 06:32:00,68.0,65.3,30.02,West,270,0.7,1.1,91,0.00,CLR,,0.00,WeatherDisplay:10.37,2013-09-11 10:32:00,
2013-09-11 06:37:00,68.0,65.3,30.03,SW,225,1.1,1.1,91,0.00,CLR,,0.00,WeatherDisplay:10.37,2013-09-11 10:37:00,
2013-09-11 06:42:00,68.0,65.3,30.03,SW,225,0.7,2.3,91,0.00,CLR,,0.00,WeatherDisplay:10.37,2013-09-11 10:42:00,
2013-09-11 06:47:00,68.2,65.5,30.03,SW,225,2.9,3.5,91,0.00,CLR,,0.00,WeatherDisplay:10.37,2013-09-11 10:47:00,
2013-09-11 06:52:00,68.2,65.5,30.03,West,270,1.4,1.4,91,0.00,CLR,,0.00,WeatherDisplay:10.37,2013-09-11 10:52:00,
2013-09-11 06:57:00,68.4,65.6,30.03,SW,225,0.9,1.1,91,0.00,CLR,,0.00,WeatherDisplay:10.37,2013-09-11 10:57:00,
2013-09-11 07:02:00,68.4,65.6,30.03,SW,225,1.1,1.1,91,0.00,CLR,,0.00,WeatherDisplay:10.37,2013-09-11 11:02:00,
2013-09-11 07:07:00,68.5,65.8,30.03,SSW,202,1.1,2.3,91,0.00,CLR,,0.00,WeatherDisplay:10.37,2013-09-11 11:07:00,
2013-09-11 07:12:00,68.7,66.0,30.03,SW,225,0.5,2.3,91,0.00,CLR,,0.00,WeatherDisplay:10.37,2013-09-11 11:12:00,
2013-09-11 07:17:00,68.9,66.2,30.03,WSW,248,2.4,2.4,91,0.00,CLR,,0.00,WeatherDisplay:10.37,2013-09-11 11:17:00,
2013-09-11 07:22:00,69.1,66.3,30.03,SW,225,3.1,3.1,91,0.00,CLR,,0.00,WeatherDisplay:10.37,2013-09-11 11:22:00,
2013-09-11 07:27:00,69.4,66.7,30.03,SW,225,0.9,2.3,91,0.00,CLR,,0.00,WeatherDisplay:10.37,2013-09-11 11:27:00,
2013-09-11 07:32:00,69.6,66.9,30.03,SW,225,0.9,2.3,91,0.00,CLR,,0.00,WeatherDisplay:10.37,2013-09-11 11:32:00,
2013-09-11 07:37:00,69.8,67.1,30.03,NW,315,1.8,3.6,91,0.00,CLR,,0.00,WeatherDisplay:10.37,2013-09-11 11:37:00,
2013-09-11 07:42:00,70.2,67.4,30.03,SSW,202,4.9,4.9,91,0.00,CLR,,0.00,WeatherDisplay:10.37,2013-09-11 11:42:00,
2013-09-11 07:47:00,70.5,67.8,30.04,SW,225,1.1,2.3,91,0.00,CLR,,0.00,WeatherDisplay:10.37,2013-09-11 11:47:00,
2013-09-11 07:52:00,70.9,67.8,30.03,SW,225,3.6,3.6,90,0.00,CLR,,0.00,WeatherDisplay:10.37,2013-09-11 11:52:00,
2013-09-11 07:57:00,71.2,68.2,30.03,SW,225,1.1,4.6,90,0.00,CLR,,0.00,WeatherDisplay:10.37,2013-09-11 11:57:00,
2013-09-11 08:02:00,71.6,68.2,30.03,West,270,1.6,3.5,89,0.00,CLR,,0.00,WeatherDisplay:10.37,2013-09-11 12:02:00,
2013-09-11 08:07:00,72.0,68.5,30.03,SSW,202,4.0,4.0,89,0.00,CLR,,0.00,WeatherDisplay:10.37,2013-09-11 12:07:00,
2013-09-11 08:12:00,72.3,68.6,30.03,SW,225,1.6,4.6,88,0.00,CLR,,0.00,WeatherDisplay:10.37,2013-09-11 12:12:00,
2013-09-11 08:17:00,72.5,68.7,30.03,WSW,248,3.6,3.6,88,0.00,CLR,,0.00,WeatherDisplay:10.37,2013-09-11 12:17:00,
2013-09-11 08:22:00,72.7,68.6,30.03,West,270,2.4,3.5,87,0.00,CLR,,0.00,WeatherDisplay:10.37,2013-09-11 12:22:00,
2013-09-11 08:27:00,73.0,69.3,30.03,SW,225,0.5,6.9,88,0.00,CLR,,0.00,WeatherDisplay:10.37,2013-09-11 12:27:00,
2013-09-11 08:32:00,73.4,69.3,30.03,West,270,2.4,3.5,87,0.00,CLR,,0.00,WeatherDisplay:10.37,2013-09-11 12:32:00,
2013-09-11 08:37:00,73.8,69.6,30.03,NNE,22,0.9,2.3,87,0.00,CLR,,0.00,WeatherDisplay:10.37,2013-09-11 12:37:00,
2013-09-11 08:42:00,73.9,69.8,30.03,SW,225,1.1,4.6,87,0.00,CLR,,0.00,WeatherDisplay:10.37,2013-09-11 12:42:00,
2013-09-11 08:47:00,74.3,69.8,30.03,South,180,1.4,1.4,86,0.00,CLR,,0.00,WeatherDisplay:10.37,2013-09-11 12:47:00,
2013-09-11 08:52:00,74.5,69.7,30.03,SSW,202,0.0,3.5,85,0.00,CLR,,0.00,WeatherDisplay:10.37,2013-09-11 12:52:00,
2013-09-11 08:57:00,75.0,70.2,30.03,SSW,202,1.8,1.8,85,0.00,CLR,,0.00,WeatherDisplay:10.37,2013-09-11 12:57:00,
2013-09-11 09:02:00,75.2,70.0,30.04,SW,225,2.9,3.5,84,0.00,CLR,,0.00,WeatherDisplay:10.37,2013-09-11 13:02:00,
2013-09-11 09:07:00,75.6,70.0,30.03,SW,225,3.3,3.3,83,0.00,CLR,,0.00,WeatherDisplay:10.37,2013-09-11 13:07:00,
2013-09-11 09:12:00,75.7,70.2,30.03,WSW,248,4.0,4.0,83,0.00,CLR,,0.00,WeatherDisplay:10.37,2013-09-11 13:12:00,
2013-09-11 09:17:00,75.9,70.4,30.03,South,180,2.4,2.4,83,0.00,CLR,,0.00,WeatherDisplay:10.37,2013-09-11 13:17:00,
2013-09-11 09:22:00,76.3,70.4,30.04,SW,225,2.0,5.8,82,0.00,CLR,,0.00,WeatherDisplay:10.37,2013-09-11 13:22:00,
2013-09-11 09:27:00,76.6,70.7,30.03,SSW,202,1.1,2.3,82,0.00,CLR,,0.00,WeatherDisplay:10.37,2013-09-11 13:27:00,
2013-09-11 09:32:00,77.0,71.1,30.03,SW,225,2.9,2.9,82,0.00,CLR,,0.00,WeatherDisplay:10.37,2013-09-11 13:32:00,
2013-09-11 09:37:00,77.2,70.9,30.04,SSW,202,3.1,4.6,81,0.00,CLR,,0.00,WeatherDisplay:10.37,2013-09-11 13:37:00,
2013-09-11 09:42:00,77.4,71.1,30.04,SW,225,3.1,3.1,81,0.00,CLR,,0.00,WeatherDisplay:10.37,2013-09-11 13:42:00,
2013-09-11 09:47:00,77.9,71.2,30.04,SSW,202,1.1,3.5,80,0.00,CLR,,0.00,WeatherDisplay:10.37,2013-09-11 13:47:00,
2013-09-11 09:52:00,78.3,71.6,30.04,WSW,248,2.4,2.4,80,0.00,CLR,,0.00,WeatherDisplay:10.37,2013-09-11 13:52:00,
2013-09-11 09:57:00,78.4,71.8,30.04,SSW,202,3.3,3.5,80,0.00,CLR,,0.00,WeatherDisplay:10.37,2013-09-11 13:57:00,
2013-09-11 10:02:00,78.8,71.4,30.03,WSW,248,3.3,3.3,78,0.00,CLR,,0.00,WeatherDisplay:10.37,2013-09-11 14:02:00,
2013-09-11 10:07:00,79.2,71.7,30.03,SSW,202,1.1,2.3,78,0.00,CLR,,0.00,WeatherDisplay:10.37,2013-09-11 14:07:00,
2013-09-11 10:12:00,79.5,71.7,30.03,SSW,202,1.8,3.5,77,0.00,CLR,,0.00,WeatherDisplay:10.37,2013-09-11 14:12:00,
2013-09-11 10:17:00,79.7,71.8,30.03,SSW,202,0.5,3.5,77,0.00,CLR,,0.00,WeatherDisplay:10.37,2013-09-11 14:17:00,
2013-09-11 10:22:00,79.9,72.0,30.03,South,180,1.4,4.6,77,0.00,CLR,,0.00,WeatherDisplay:10.37,2013-09-11 14:22:00,
2013-09-11 10:27:00,80.2,72.8,30.03,SW,225,1.6,3.5,78,0.00,CLR,,0.00,WeatherDisplay:10.37,2013-09-11 14:27:00,
2013-09-11 10:32:00,80.6,73.1,30.03,SW,225,2.4,2.4,78,0.00,CLR,,0.00,WeatherDisplay:10.37,2013-09-11 14:32:00,
2013-09-11 10:37:00,81.1,73.2,30.03,West,270,0.2,3.5,77,0.00,CLR,,0.00,WeatherDisplay:10.37,2013-09-11 14:37:00,
2013-09-11 10:42:00,81.3,72.6,30.03,SSW,202,0.7,4.6,75,0.00,CLR,,0.00,WeatherDisplay:10.37,2013-09-11 14:42:00,
2013-09-11 10:47:00,81.5,72.8,30.02,SW,225,4.0,4.0,75,0.00,CLR,,0.00,WeatherDisplay:10.37,2013-09-11 14:47:00,
2013-09-11 10:52:00,81.7,73.4,30.02,SW,225,1.1,4.6,76,0.00,CLR,,0.00,WeatherDisplay:10.37,2013-09-11 14:52:00,
2013-09-11 10:57:00,82.0,73.7,30.02,SW,225,1.6,3.5,76,0.00,CLR,,0.00,WeatherDisplay:10.37,2013-09-11 14:57:00,
2013-09-11 11:02:00,82.6,74.2,30.02,SW,225,1.6,4.6,76,0.00,CLR,,0.00,WeatherDisplay:10.37,2013-09-11 15:02:00,
2013-09-11 11:07:00,82.9,74.2,30.02,SW,225,0.9,1.1,75,0.00,CLR,,0.00,WeatherDisplay:10.37,2013-09-11 15:07:00,
2013-09-11 11:12:00,83.1,74.8,30.02,SSE,158,0.5,2.3,76,0.00,CLR,,0.00,WeatherDisplay:10.37,2013-09-11 15:12:00,
2013-09-11 11:17:00,83.5,74.7,30.02,WNW,292,0.5,4.6,75,0.00,CLR,,0.00,WeatherDisplay:10.37,2013-09-11 15:17:00,
2013-09-11 11:22:00,83.8,75.1,30.02,SSW,202,1.8,5.8,75,0.00,CLR,,0.00,WeatherDisplay:10.37,2013-09-11 15:22:00,
2013-09-11 11:27:00,84.2,75.0,30.01,WNW,292,3.8,4.6,74,0.00,CLR,,0.00,WeatherDisplay:10.37,2013-09-11 15:27:00,
2013-09-11 11:32:00,84.6,74.9,30.01,SW,225,1.4,5.8,73,0.00,CLR,,0.00,WeatherDisplay:10.37,2013-09-11 15:32:00,
2013-09-11 11:37:00,84.7,74.7,30.01,SSW,202,3.3,3.3,72,0.00,CLR,,0.00,WeatherDisplay:10.37,2013-09-11 15:37:00,
2013-09-11 11:42:00,84.7,74.7,30.01,SSW,202,1.8,4.6,72,0.00,CLR,,0.00,WeatherDisplay:10.37,2013-09-11 15:42:00,
2013-09-11 11:47:00,85.1,75.5,30.01,SW,225,2.0,3.5,73,0.00,CLR,,0.00,WeatherDisplay:10.37,2013-09-11 15:47:00,
2013-09-11 11:52:00,85.3,75.2,30.01,WSW,248,2.4,3.5,72,0.00,CLR,,0.00,WeatherDisplay:10.37,2013-09-11 15:52:00,
2013-09-11 11:57:00,85.6,75.6,30.01,SSW,202,2.4,4.6,72,0.00,CLR,,0.00,WeatherDisplay:10.37,2013-09-11 15:57:00,
2013-09-11 12:02:00,85.8,75.3,30.00,WSW,248,6.0,6.0,71,0.00,CLR,,0.00,WeatherDisplay:10.37,2013-09-11 16:02:00,
2013-09-11 12:07:00,85.6,74.3,30.00,SW,225,5.9,5.9,69,0.00,CLR,,0.00,WeatherDisplay:10.37,2013-09-11 16:07:00,
2013-09-11 12:12:00,85.3,74.4,30.00,WSW,248,3.3,3.3,70,0.00,CLR,,0.00,WeatherDisplay:10.37,2013-09-11 16:12:00,
2013-09-11 12:17:00,85.1,73.8,30.00,SW,225,1.8,5.8,69,0.00,CLR,,0.00,WeatherDisplay:10.37,2013-09-11 16:17:00,
2013-09-11 12:22:00,84.9,74.0,30.00,SW,225,2.4,5.8,70,0.00,CLR,,0.00,WeatherDisplay:10.37,2013-09-11 16:22:00,
2013-09-11 12:27:00,84.7,73.9,30.00,SSW,202,6.0,6.9,70,0.00,CLR,,0.00,WeatherDisplay:10.37,2013-09-11 16:27:00,
2013-09-11 12:32:00,84.2,72.9,30.00,SSW,202,5.6,5.6,69,0.00,CLR,,0.00,WeatherDisplay:10.37,2013-09-11 16:32:00,
2013-09-11 12:37:00,84.2,73.8,30.00,SSE,158,1.8,2.3,71,0.00,CLR,,0.00,WeatherDisplay:10.37,2013-09-11 16:37:00,
2013-09-11 12:42:00,84.4,73.9,30.00,SW,225,1.8,3.5,71,0.00,CLR,,0.00,WeatherDisplay:10.37,2013-09-11 16:42:00,
2013-09-11 12:47:00,84.4,73.5,30.00,SW,225,4.0,4.6,70,0.00,CLR,,0.00,WeatherDisplay:10.37,2013-09-11 16:47:00,
2013-09-11 12:52:00,84.6,73.7,30.00,WSW,248,5.4,5.8,70,0.00,CLR,,0.00,WeatherDisplay:10.37,2013-09-11 16:52:00,
2013-09-11 12:57:00,84.4,73.1,30.00,SSW,202,6.9,6.9,69,0.00,CLR,,0.00,WeatherDisplay:10.37,2013-09-11 16:57:00,
2013-09-11 13:02:00,83.8,73.0,30.00,SSW,202,5.4,6.9,70,0.00,CLR,,0.00,WeatherDisplay:10.37,2013-09-11 17:02:00,
2013-09-11 13:07:00,83.8,73.8,30.00,West,270,1.4,3.5,72,0.00,CLR,,0.00,WeatherDisplay:10.37,2013-09-11 17:07:00,
2013-09-11 13:12:00,83.7,72.8,30.00,WSW,248,1.1,4.6,70,0.00,CLR,,0.00,WeatherDisplay:10.37,2013-09-11 17:12:00,
2013-09-11 13:17:00,83.7,73.3,30.00,SW,225,4.3,4.3,71,0.00,CLR,,0.00,WeatherDisplay:10.37,2013-09-11 17:17:00,
2013-09-11 13:22:00,83.5,72.7,29.99,South,180,4.9,4.9,70,0.00,CLR,,0.00,WeatherDisplay:10.37,2013-09-11 17:22:00,
2013-09-11 13:27:00,83.5,73.5,29.99,SSW,202,1.8,4.6,72,0.00,CLR,,0.00,WeatherDisplay:10.37,2013-09-11 17:27:00,
2013-09-11 13:32:00,83.7,73.7,29.99,SW,225,2.0,2.3,72,0.00,CLR,,0.00,WeatherDisplay:10.37,2013-09-11 17:32:00,
2013-09-11 13:37:00,84.0,73.6,29.99,SSE,158,1.6,1.6,71,0.00,CLR,,0.00,WeatherDisplay:10.37,2013-09-11 17:37:00,
2013-09-11 13:42:00,84.2,73.3,29.98,SW,225,5.9,5.9,70,0.00,CLR,,0.00,WeatherDisplay:10.37,2013-09-11 17:42:00,
2013-09-11 13:47:00,84.2,73.3,29.98,South,180,3.1,3.1,70,0.00,CLR,,0.00,WeatherDisplay:10.37,2013-09-11 17:47:00,
2013-09-11 13:52:00,84.2,73.8,29.98,WNW,292,1.1,2.3,71,0.00,CLR,,0.00,WeatherDisplay:10.37,2013-09-11 17:52:00,
2013-09-11 13:57:00,84.6,74.1,29.98,SSE,158,0.5,2.3,71,0.00,CLR,,0.00,WeatherDisplay:10.37,2013-09-11 17:57:00,
2013-09-11 14:02:00,84.6,74.5,29.98,WSW,248,4.0,4.0,72,0.00,CLR,,0.00,WeatherDisplay:10.37,2013-09-11 18:02:00,
2013-09-11 14:07:00,84.9,74.5,29.98,South,180,5.4,6.9,71,0.00,CLR,,0.00,WeatherDisplay:10.37,2013-09-11 18:07:00,
2013-09-11 14:12:00,85.1,74.2,29.98,South,180,1.1,4.6,70,0.00,CLR,,0.00,WeatherDisplay:10.37,2013-09-11 18:12:00,
2013-09-11 14:17:00,85.3,74.0,29.97,WSW,248,5.2,5.2,69,0.00,CLR,,0.00,WeatherDisplay:10.37,2013-09-11 18:17:00,
2013-09-11 14:22:00,85.3,74.4,29.97,SSW,202,2.6,4.6,70,0.00,CLR,,0.00,WeatherDisplay:10.37,2013-09-11 18:22:00,
2013-09-11 14:28:00,85.1,73.8,29.97,SSW,202,4.5,6.9,69,0.00,CLR,,0.00,WeatherDisplay:10.37,2013-09-11 18:28:00,
2013-09-11 14:33:00,85.1,74.2,29.97,SSW,202,0.7,1.1,70,0.00,CLR,,0.00,WeatherDisplay:10.37,2013-09-11 18:33:00,
2013-09-11 14:38:00,85.3,74.4,29.97,SSW,202,4.7,4.7,70,0.00,CLR,,0.00,WeatherDisplay:10.37,2013-09-11 18:38:00,
2013-09-11 14:43:00,85.3,74.4,29.98,SSW,202,1.6,4.6,70,0.00,CLR,,0.00,WeatherDisplay:10.37,2013-09-11 18:43:00,
2013-09-11 14:48:00,85.1,74.2,29.97,West,270,2.2,2.3,70,0.00,CLR,,0.00,WeatherDisplay:10.37,2013-09-11 18:48:00,
2013-09-11 14:53:00,84.7,73.4,29.98,SSW,202,1.4,5.8,69,0.00,CLR,,0.00,WeatherDisplay:10.37,2013-09-11 18:53:00,
2013-09-11 14:58:00,84.4,73.9,29.98,NE,45,1.6,2.3,71,0.00,CLR,,0.00,WeatherDisplay:10.37,2013-09-11 18:58:00,
2013-09-11 15:03:00,84.4,73.9,29.98,WSW,248,3.6,3.6,71,0.00,CLR,,0.00,WeatherDisplay:10.37,2013-09-11 19:03:00,
2013-09-11 15:08:00,84.4,73.1,29.98,South,180,1.1,1.1,69,0.00,CLR,,0.00,WeatherDisplay:10.37,2013-09-11 19:08:00,
2013-09-11 15:13:00,84.0,73.6,29.98,West,270,4.3,4.6,71,0.00,CLR,,0.00,WeatherDisplay:10.37,2013-09-11 19:13:00,
2013-09-11 15:18:00,84.0,73.6,29.97,SSW,202,3.6,5.8,71,0.00,CLR,,0.00,WeatherDisplay:10.37,2013-09-11 19:18:00,
2013-09-11 15:23:00,83.8,73.4,29.97,WSW,248,7.4,7.4,71,0.00,CLR,,0.00,WeatherDisplay:10.37,2013-09-11 19:23:00,
2013-09-11 15:28:00,83.3,72.9,29.97,West,270,2.4,4.6,71,0.00,CLR,,0.00,WeatherDisplay:10.37,2013-09-11 19:28:00,
2013-09-11 15:33:00,83.1,73.2,29.97,West,270,2.2,5.8,72,0.00,CLR,,0.00,WeatherDisplay:10.37,2013-09-11 19:33:00,
2013-09-11 15:38:00,82.8,72.8,29.97,SSW,202,2.2,2.3,72,0.00,CLR,,0.00,WeatherDisplay:10.37,2013-09-11 19:38:00,
2013-09-11 15:43:00,82.4,72.9,29.97,WSW,248,0.9,2.3,73,0.00,CLR,,0.00,WeatherDisplay:10.37,2013-09-11 19:43:00,
2013-09-11 15:48:00,82.6,73.0,29.97,South,180,1.4,1.4,73,0.00,CLR,,0.00,WeatherDisplay:10.37,2013-09-11 19:48:00,
2013-09-11 15:53:00,82.4,72.9,29.97,SSE,158,3.1,3.1,73,0.00,CLR,,0.00,WeatherDisplay:10.37,2013-09-11 19:53:00,
2013-09-11 15:58:00,82.4,72.9,29.97,WSW,248,4.0,4.0,73,0.00,CLR,,0.00,WeatherDisplay:10.37,2013-09-11 19:58:00,
2013-09-11 16:03:00,82.0,72.5,29.97,SW,225,3.8,4.6,73,0.00,CLR,,0.00,WeatherDisplay:10.37,2013-09-11 20:03:00,
2013-09-11 16:08:00,81.5,72.0,29.97,WNW,292,0.5,4.6,73,0.00,CLR,,0.00,WeatherDisplay:10.37,2013-09-11 20:08:00,
2013-09-11 16:13:00,81.3,71.8,29.97,SW,225,4.7,4.7,73,0.00,CLR,,0.00,WeatherDisplay:10.37,2013-09-11 20:13:00,
2013-09-11 16:18:00,80.6,71.5,29.97,SW,225,3.1,5.8,74,0.00,CLR,,0.00,WeatherDisplay:10.37,2013-09-11 20:18:00,
2013-09-11 16:23:00,80.1,71.4,29.97,SW,225,2.0,3.5,75,0.00,CLR,,0.00,WeatherDisplay:10.37,2013-09-11 20:23:00,
2013-09-11 16:28:00,79.9,71.2,29.97,SSE,158,5.4,5.4,75,0.00,CLR,,0.00,WeatherDisplay:10.37,2013-09-11 20:28:00,
2013-09-11 16:33:00,79.5,70.9,29.97,SW,225,1.4,4.6,75,0.00,CLR,,0.00,WeatherDisplay:10.37,2013-09-11 20:33:00,
2013-09-11 16:38:00,79.3,71.1,29.97,SSW,202,4.5,4.5,76,0.00,CLR,,0.00,WeatherDisplay:10.37,2013-09-11 20:38:00,
2013-09-11 16:43:00,79.2,70.9,29.97,SW,225,1.1,3.5,76,0.00,CLR,,0.00,WeatherDisplay:10.37,2013-09-11 20:43:00,
2013-09-11 16:48:00,79.0,71.2,29.97,SSW,202,4.0,4.0,77,0.00,CLR,,0.00,WeatherDisplay:10.37,2013-09-11 20:48:00,
2013-09-11 16:53:00,78.8,71.0,29.96,SSW,202,0.9,2.3,77,0.00,CLR,,0.00,WeatherDisplay:10.37,2013-09-11 20:53:00,
2013-09-11 16:58:00,78.6,70.8,29.96,SSW,202,0.7,3.5,77,0.00,CLR,,0.00,WeatherDisplay:10.37,2013-09-11 20:58:00,
2013-09-11 17:03:00,78.6,71.2,29.96,SW,225,4.0,4.6,78,0.00,CLR,,0.00,WeatherDisplay:10.37,2013-09-11 21:03:00,
2013-09-11 17:08:00,78.4,71.0,29.96,SW,225,1.6,4.6,78,0.00,CLR,,0.00,WeatherDisplay:10.37,2013-09-11 21:08:00,
2013-09-11 17:13:00,78.3,71.2,29.96,SW,225,4.5,6.9,79,0.00,CLR,,0.00,WeatherDisplay:10.37,2013-09-11 21:13:00,
2013-09-11 17:18:00,78.1,70.7,29.96,WSW,248,1.1,2.3,78,0.00,CLR,,0.00,WeatherDisplay:10.37,2013-09-11 21:18:00,
2013-09-11 17:23:00,78.1,70.7,29.95,WSW,248,0.7,4.6,78,0.00,CLR,,0.00,WeatherDisplay:10.37,2013-09-11 21:23:00,
2013-09-11 17:28:00,77.9,70.9,29.95,SW,225,1.8,3.5,79,0.00,CLR,,0.00,WeatherDisplay:10.37,2013-09-11 21:28:00,
2013-09-11 17:33:00,77.7,70.7,29.95,WSW,248,3.1,3.1,79,0.00,CLR,,0.00,WeatherDisplay:10.37,2013-09-11 21:33:00,
2013-09-11 17:38:00,77.5,70.5,29.95,West,270,1.8,4.6,79,0.00,CLR,,0.00,WeatherDisplay:10.37,2013-09-11 21:38:00,
2013-09-11 17:43:00,77.4,70.3,29.95,SSW,202,3.1,5.8,79,0.00,CLR,,0.00,WeatherDisplay:10.37,2013-09-11 21:43:00,
2013-09-11 17:48:00,77.2,70.5,29.95,SW,225,3.3,3.5,80,0.00,CLR,,0.00,WeatherDisplay:10.37,2013-09-11 21:48:00,
2013-09-11 17:53:00,77.0,70.4,29.95,SSW,202,9.4,9.4,80,0.00,CLR,,0.00,WeatherDisplay:10.37,2013-09-11 21:53:00,
2013-09-11 17:58:00,76.8,70.2,29.95,SSE,158,0.5,4.6,80,0.00,CLR,,0.00,WeatherDisplay:10.37,2013-09-11 21:58:00,
2013-09-11 18:03:00,76.6,70.0,29.95,SW,225,3.3,3.5,80,0.00,CLR,,0.00,WeatherDisplay:10.37,2013-09-11 22:03:00,
2013-09-11 18:08:00,76.5,69.8,29.95,SW,225,1.8,3.5,80,0.00,CLR,,0.00,WeatherDisplay:10.37,2013-09-11 22:08:00,
2013-09-11 18:13:00,76.1,69.5,29.95,SSW,202,2.2,3.5,80,0.00,CLR,,0.00,WeatherDisplay:10.37,2013-09-11 22:13:00,
2013-09-11 18:18:00,75.9,69.7,29.95,SSW,202,0.7,5.8,81,0.00,CLR,,0.00,WeatherDisplay:10.37,2013-09-11 22:18:00,
2013-09-11 18:23:00,75.6,69.3,29.95,SSW,202,1.8,3.5,81,0.00,CLR,,0.00,WeatherDisplay:10.37,2013-09-11 22:23:00,
2013-09-11 18:28:00,75.6,69.3,29.94,SSW,202,2.9,2.9,81,0.00,CLR,,0.00,WeatherDisplay:10.37,2013-09-11 22:28:00,
2013-09-11 18:33:00,75.4,69.1,29.94,SSW,202,1.1,1.1,81,0.00,CLR,,0.00,WeatherDisplay:10.37,2013-09-11 22:33:00,
2013-09-11 18:38:00,75.2,69.3,29.94,SW,225,1.8,5.8,82,0.00,CLR,,0.00,WeatherDisplay:10.37,2013-09-11 22:38:00,
2013-09-11 18:43:00,75.0,69.1,29.94,SSW,202,4.7,4.7,82,0.00,CLR,,0.00,WeatherDisplay:10.37,2013-09-11 22:43:00,
2013-09-11 18:48:00,74.8,69.0,29.95,WSW,248,3.6,6.9,82,0.00,CLR,,0.00,WeatherDisplay:10.37,2013-09-11 22:48:00,
2013-09-11 18:53:00,74.5,68.6,29.94,SW,225,1.6,2.3,82,0.00,CLR,,0.00,WeatherDisplay:10.37,2013-09-11 22:53:00,
2013-09-11 18:58:00,74.3,68.4,29.94,SSE,158,1.6,4.6,82,0.00,CLR,,0.00,WeatherDisplay:10.37,2013-09-11 22:58:00,
2013-09-11 19:03:00,74.1,68.3,29.94,SW,225,0.7,4.6,82,0.00,CLR,,0.00,WeatherDisplay:10.37,2013-09-11 23:03:00,
2013-09-11 19:08:00,74.1,68.6,29.95,WSW,248,4.0,4.6,83,0.00,CLR,,0.00,WeatherDisplay:10.37,2013-09-11 23:08:00,
2013-09-11 19:13:00,73.8,68.3,29.95,SSW,202,1.1,2.3,83,0.00,CLR,,0.00,WeatherDisplay:10.37,2013-09-11 23:13:00,
2013-09-11 19:18:00,73.8,68.3,29.95,WSW,248,0.7,1.1,83,0.00,CLR,,0.00,WeatherDisplay:10.37,2013-09-11 23:18:00,
2013-09-11 19:23:00,73.8,68.3,29.96,SSW,202,2.6,3.5,83,0.00,CLR,,0.00,WeatherDisplay:10.37,2013-09-11 23:23:00,
2013-09-11 19:28:00,73.6,68.4,29.96,South,180,2.9,2.9,84,0.00,CLR,,0.00,WeatherDisplay:10.37,2013-09-11 23:28:00,
2013-09-11 19:33:00,73.6,68.4,29.97,SSW,202,2.0,4.6,84,0.00,CLR,,0.00,WeatherDisplay:10.37,2013-09-11 23:33:00,
2013-09-11 19:38:00,73.6,68.4,29.97,WNW,292,1.6,5.8,84,0.00,CLR,,0.00,WeatherDisplay:10.37,2013-09-11 23:38:00,
2013-09-11 19:43:00,73.4,68.3,29.97,South,180,2.4,8.1,84,0.00,CLR,,0.00,WeatherDisplay:10.37,2013-09-11 23:43:00,
2013-09-11 19:48:00,73.4,68.3,29.97,SW,225,0.9,2.3,84,0.00,CLR,,0.00,WeatherDisplay:10.37,2013-09-11 23:48:00,
2013-09-11 19:53:00,73.4,68.3,29.97,SW,225,0.9,3.5,84,0.00,CLR,,0.00,WeatherDisplay:10.37,2013-09-11 23:53:00,
2013-09-11 19:58:00,73.4,68.6,29.98,SW,225,1.8,2.3,85,0.00,CLR,,0.00,WeatherDisplay:10.37,2013-09-11 23:58:00,
2013-09-11 20:03:00,73.4,68.3,29.98,SE,135,1.4,4.6,84,0.00,CLR,,0.00,WeatherDisplay:10.37,2013-09-12 00:03:00,
2013-09-11 20:08:00,73.2,68.4,29.98,SW,225,7.6,7.6,85,0.00,CLR,,0.00,WeatherDisplay:10.37,2013-09-12 00:08:00,
2013-09-11 20:13:00,73.2,68.4,29.98,SSW,202,0.7,4.6,85,0.00,CLR,,0.00,WeatherDisplay:10.37,2013-09-12 00:13:00,
2013-09-11 20:18:00,73.2,68.4,29.98,NE,45,0.7,2.3,85,0.00,CLR,,0.00,WeatherDisplay:10.37,2013-09-12 00:18:00,
2013-09-11 20:23:00,73.0,68.3,29.98,SW,225,1.4,4.6,85,0.00,CLR,,0.00,WeatherDisplay:10.37,2013-09-12 00:23:00,
2013-09-11 20:28:00,73.0,68.3,29.99,SSW,202,2.9,3.5,85,0.00,CLR,,0.00,WeatherDisplay:10.37,2013-09-12 00:28:00,
2013-09-11 20:33:00,72.9,68.1,29.99,SSW,202,0.5,2.3,85,0.00,CLR,,0.00,WeatherDisplay:10.37,2013-09-12 00:33:00,
2013-09-11 20:39:00,72.7,67.6,29.99,WNW,292,5.2,5.2,84,0.00,CLR,,0.00,WeatherDisplay:10.37,2013-09-12 00:39:00,
2013-09-11 20:44:00,72.7,67.6,29.99,South,180,0.5,3.5,84,0.00,CLR,,0.00,WeatherDisplay:10.37,2013-09-12 00:44:00,
2013-09-11 20:49:00,72.7,67.6,29.99,WSW,248,1.6,3.5,84,0.00,CLR,,0.00,WeatherDisplay:10.37,2013-09-12 00:49:00,
2013-09-11 20:54:00,72.5,67.4,29.98,SSW,202,2.0,2.0,84,0.00,CLR,,0.00,WeatherDisplay:10.37,2013-09-12 00:54:00,
2013-09-11 20:59:00,72.5,67.4,29.98,SW,225,1.6,1.6,84,0.00,CLR,,0.00,WeatherDisplay:10.37,2013-09-12 00:59:00,
2013-09-11 21:04:00,72.3,67.2,29.98,NNW,338,0.5,0.0,84,0.00,CLR,,0.00,WeatherDisplay:10.37,2013-09-12 01:04:00,
2013-09-11 21:09:00,72.3,67.2,29.98,South,180,0.9,2.3,84,0.00,CLR,,0.00,WeatherDisplay:10.37,2013-09-12 01:09:00,
2013-09-11 21:14:00,72.1,67.4,29.98,SW,225,4.9,4.9,85,0.00,CLR,,0.00,WeatherDisplay:10.37,2013-09-12 01:14:00,
2013-09-11 21:19:00,72.1,67.4,29.98,West,270,1.1,2.3,85,0.00,CLR,,0.00,WeatherDisplay:10.37,2013-09-12 01:19:00,
2013-09-11 21:24:00,72.0,66.9,29.98,SW,225,1.1,1.1,84,0.00,CLR,,0.00,WeatherDisplay:10.37,2013-09-12 01:24:00,
2013-09-11 21:29:00,72.0,67.2,29.98,WSW,248,0.9,1.1,85,0.00,CLR,,0.00,WeatherDisplay:10.37,2013-09-12 01:29:00,
2013-09-11 21:34:00,72.0,67.2,29.98,SW,225,1.4,2.3,85,0.00,CLR,,0.00,WeatherDisplay:10.37,2013-09-12 01:34:00,
2013-09-11 21:39:00,72.0,67.2,29.98,SW,225,2.4,2.4,85,0.00,CLR,,0.00,WeatherDisplay:10.37,2013-09-12 01:39:00,
2013-09-11 21:44:00,71.8,67.0,29.98,SW,225,9.9,10.4,85,0.00,CLR,,0.00,WeatherDisplay:10.37,2013-09-12 01:44:00,
2013-09-11 21:49:00,71.8,67.4,29.98,West,270,5.9,5.9,86,0.00,CLR,,0.00,WeatherDisplay:10.37,2013-09-12 01:49:00,
2013-09-11 21:54:00,72.0,67.5,29.98,SSW,202,0.5,2.4,86,0.00,CLR,,0.00,WeatherDisplay:10.37,2013-09-12 01:54:00,
2013-09-11 21:59:00,71.8,67.4,29.98,SW,225,1.1,4.6,86,0.00,CLR,,0.00,WeatherDisplay:10.37,2013-09-12 01:59:00,
2013-09-11 22:04:00,71.8,67.4,29.98,North,0,0.5,3.5,86,0.00,CLR,,0.00,WeatherDisplay:10.37,2013-09-12 02:04:00,
2013-09-11 22:09:00,71.8,67.4,29.98,WSW,248,1.6,2.3,86,0.00,CLR,,0.00,WeatherDisplay:10.37,2013-09-12 02:09:00,
2013-09-11 22:14:00,71.6,67.2,29.98,SW,225,0.5,2.3,86,0.00,CLR,,0.00,WeatherDisplay:10.37,2013-09-12 02:14:00,
2013-09-11 22:19:00,71.6,66.8,29.98,WSW,248,0.5,1.1,85,0.00,CLR,,0.00,WeatherDisplay:10.37,2013-09-12 02:19:00,
2013-09-11 22:24:00,71.4,67.0,29.98,SW,225,4.0,4.0,86,0.00,CLR,,0.00,WeatherDisplay:10.37,2013-09-12 02:24:00,
2013-09-11 22:29:00,71.4,67.0,29.98,WSW,248,0.7,2.3,86,0.00,CLR,,0.00,WeatherDisplay:10.37,2013-09-12 02:29:00,
2013-09-11 22:34:00,71.2,66.8,29.98,SSW,202,0.7,1.1,86,0.00,CLR,,0.00,WeatherDisplay:10.37,2013-09-12 02:34:00,
2013-09-11 22:39:00,71.2,66.8,29.98,SW,225,3.3,4.6,86,0.00,CLR,,0.00,WeatherDisplay:10.37,2013-09-12 02:39:00,
2013-09-11 22:44:00,71.2,66.8,29.98,West,270,1.1,2.9,86,0.00,CLR,,0.00,WeatherDisplay:10.37,2013-09-12 02:44:00,
2013-09-11 22:49:00,71.1,67.0,29.98,SSW,202,0.7,1.1,87,0.00,CLR,,0.00,WeatherDisplay:10.37,2013-09-12 02:49:00,
2013-09-11 22:54:00,71.1,66.7,29.98,NW,315,0.5,0.5,86,0.00,CLR,,0.00,WeatherDisplay:10.37,2013-09-12 02:54:00,
2013-09-11 22:59:00,70.9,66.8,29.98,SW,225,1.6,2.3,87,0.00,CLR,,0.00,WeatherDisplay:10.37,2013-09-12 02:59:00,
2013-09-11 23:04:00,71.1,67.3,29.98,WSW,248,0.5,4.6,88,0.00,CLR,,0.00,WeatherDisplay:10.37,2013-09-12 03:04:00,
2013-09-11 23:09:00,71.1,67.3,29.98,SSW,202,1.1,1.1,88,0.00,CLR,,0.00,WeatherDisplay:10.37,2013-09-12 03:09:00,
2013-09-11 23:14:00,71.1,67.3,29.97,SSE,158,1.8,3.5,88,0.00,CLR,,0.00,WeatherDisplay:10.37,2013-09-12 03:14:00,
2013-09-11 23:19:00,70.9,67.1,29.97,South,180,1.1,1.1,88,0.00,CLR,,0.00,WeatherDisplay:10.37,2013-09-12 03:19:00,
2013-09-11 23:24:00,70.9,67.1,29.97,SSW,202,0.9,1.1,88,0.00,CLR,,0.00,WeatherDisplay:10.37,2013-09-12 03:24:00,
2013-09-11 23:29:00,70.9,67.1,29.97,SSW,202,0.9,2.3,88,0.00,CLR,,0.00,WeatherDisplay:10.37,2013-09-12 03:29:00,
2013-09-11 23:34:00,70.9,67.1,29.97,SW,225,1.1,3.5,88,0.00,CLR,,0.00,WeatherDisplay:10.37,2013-09-12 03:34:00,
2013-09-11 23:39:00,70.7,67.0,29.97,SW,225,5.6,5.6,88,0.00,CLR,,0.00,WeatherDisplay:10.37,2013-09-12 03:39:00,
2013-09-11 23:44:00,70.7,67.0,29.96,SW,225,0.7,1.1,88,0.00,CLR,,0.00,WeatherDisplay:10.37,2013-09-12 03:44:00,
2013-09-11 23:49:00,70.7,67.0,29.96,SSW,202,3.8,4.6,88,0.00,CLR,,0.00,WeatherDisplay:10.37,2013-09-12 03:49:00,
2013-09-11 23:54:00,70.7,67.0,29.96,South,180,1.8,3.5,88,0.00,CLR,,0.00,WeatherDisplay:10.37,2013-09-12 03:54:00,
2013-09-11 23:59:00,70.5,66.8,29.96,WSW,248,1.1,2.3,88,0.00,CLR,,0.00,WeatherDisplay:10.37,2013-09-12 03:59:00,